contact: severine.martini@mio.osupytheas.fr, dominique.lefevre@mio.osupytheas.fr
Project:EMSO Ligure-ouest http://www.emso-fr.org/EMSO-France
Sensor Optode, line 4330 Serial 272 
DOI : "https://doi.org/10.17882/97948" 
Title:EMSO Ligure Ouest : Data BathyDock capteur Optode - deploiement "2023-04-28"
Datetime,Profondeur,Latitude,Longitude,optode_type,serial,O2_concentration,O2_saturation,Temperature,Calibrated_Phase,Temp_Compensated_Phase,phase_blue_light,phase_red_light,Amplitude_blue_light,Amplitude_red_light,thermistor_bridge
time,m,degree_north,degree_east,1,1,umol.l-1,%,degree_C,degree,degree,degree,degree,mV,mV,mV
2023-12-28T00:00:07,2420,42.8014,5.9826,4330,272,185.906,56.956,13.324,36.069,36.649,41.234,4.585,295.8,545.2,290.8
2023-12-28T00:03:07,2420,42.8014,5.9826,4330,272,185.888,56.958,13.330,36.068,36.648,41.238,4.590,295.9,545.2,290.6
2023-12-28T00:06:07,2420,42.8014,5.9826,4330,272,186.154,57.032,13.324,36.053,36.633,41.220,4.587,295.9,545.2,290.8
2023-12-28T00:09:07,2420,42.8014,5.9826,4330,272,186.166,57.030,13.320,36.054,36.634,41.220,4.586,295.9,545.2,290.9
2023-12-28T00:12:08,2420,42.8014,5.9826,4330,272,185.940,56.972,13.329,36.064,36.644,41.232,4.588,295.9,545.2,290.6
2023-12-28T00:15:08,2420,42.8014,5.9826,4330,272,185.881,56.958,13.332,36.067,36.647,41.235,4.588,295.8,545.2,290.5
2023-12-28T00:18:08,2420,42.8014,5.9826,4330,272,186.172,57.050,13.334,36.046,36.626,41.213,4.587,295.8,545.2,290.4
2023-12-28T00:21:08,2420,42.8014,5.9826,4330,272,186.046,57.003,13.328,36.058,36.638,41.229,4.591,295.9,545.3,290.6
2023-12-28T00:24:07,2420,42.8014,5.9826,4330,272,185.975,56.989,13.334,36.060,36.640,41.231,4.591,295.9,545.2,290.4
2023-12-28T00:27:07,2420,42.8014,5.9826,4330,272,186.056,57.007,13.329,36.057,36.637,41.224,4.587,295.9,545.2,290.6
2023-12-28T00:30:07,2420,42.8014,5.9826,4330,272,186.040,57.004,13.330,36.057,36.637,41.224,4.587,295.9,545.2,290.6
2023-12-28T00:33:07,2420,42.8014,5.9826,4330,272,185.968,56.989,13.335,36.060,36.640,41.225,4.585,295.9,545.2,290.4
2023-12-28T00:36:07,2420,42.8014,5.9826,4330,272,185.877,56.961,13.335,36.066,36.645,41.234,4.588,296.0,545.1,290.4
2023-12-28T00:39:08,2420,42.8014,5.9826,4330,272,186.014,57.002,13.335,36.057,36.637,41.229,4.592,295.9,545.2,290.4
2023-12-28T00:42:08,2420,42.8014,5.9826,4330,272,185.850,56.947,13.331,36.069,36.649,41.239,4.590,295.9,545.3,290.5
2023-12-28T00:45:08,2420,42.8014,5.9826,4330,272,185.817,56.938,13.331,36.071,36.651,41.235,4.585,295.9,545.2,290.5
2023-12-28T00:48:08,2420,42.8014,5.9826,4330,272,185.901,56.960,13.328,36.067,36.647,41.235,4.588,295.9,545.1,290.6
2023-12-28T00:51:08,2420,42.8014,5.9826,4330,272,185.942,56.968,13.325,36.067,36.647,41.238,4.591,296.0,545.2,290.7
2023-12-28T00:54:07,2420,42.8014,5.9826,4330,272,186.053,56.996,13.321,36.061,36.641,41.227,4.585,295.9,545.2,290.9
2023-12-28T00:57:07,2420,42.8014,5.9826,4330,272,185.935,56.965,13.324,36.067,36.647,41.230,4.583,296.0,545.2,290.8
2023-12-28T01:00:07,2420,42.8014,5.9826,4330,272,185.867,56.956,13.333,36.067,36.647,41.234,4.587,296.0,545.2,290.5
2023-12-28T01:03:07,2420,42.8014,5.9826,4330,272,186.038,56.997,13.325,36.060,36.640,41.225,4.585,296.0,545.3,290.7
2023-12-28T01:06:07,2420,42.8014,5.9826,4330,272,185.810,56.920,13.319,36.078,36.658,41.245,4.587,296.0,545.2,290.9
2023-12-28T01:09:07,2420,42.8014,5.9826,4330,272,186.139,57.019,13.318,36.057,36.637,41.228,4.591,295.9,545.2,291.0
2023-12-28T01:12:07,2420,42.8014,5.9826,4330,272,186.030,56.984,13.316,36.065,36.645,41.232,4.587,296.0,545.2,291.0
2023-12-28T01:15:07,2420,42.8014,5.9826,4330,272,185.951,56.961,13.317,36.069,36.649,41.236,4.587,295.9,545.3,291.0
2023-12-28T01:18:07,2420,42.8014,5.9826,4330,272,186.064,56.995,13.317,36.062,36.642,41.224,4.583,295.9,545.3,291.0
2023-12-28T01:21:07,2420,42.8014,5.9826,4330,272,185.990,56.976,13.320,36.065,36.645,41.233,4.588,295.9,545.3,290.9
2023-12-28T01:24:07,2420,42.8014,5.9826,4330,272,185.838,56.931,13.321,36.075,36.655,41.236,4.582,295.9,545.3,290.9
2023-12-28T01:27:08,2420,42.8014,5.9826,4330,272,186.195,57.037,13.318,36.053,36.633,41.220,4.587,296.0,545.3,291.0
2023-12-28T01:30:08,2420,42.8014,5.9826,4330,272,186.036,56.989,13.319,36.063,36.643,41.229,4.586,295.9,545.3,290.9
2023-12-28T01:33:07,2420,42.8014,5.9826,4330,272,185.805,56.918,13.318,36.078,36.658,41.239,4.581,295.9,545.2,291.0
2023-12-28T01:36:07,2420,42.8014,5.9826,4330,272,186.068,56.997,13.317,36.062,36.642,41.227,4.585,295.9,545.3,291.0
2023-12-28T01:39:07,2420,42.8014,5.9826,4330,272,186.331,57.081,13.320,36.044,36.624,41.215,4.591,296.0,545.3,290.9
2023-12-28T01:42:07,2420,42.8014,5.9826,4330,272,186.293,57.065,13.317,36.047,36.627,41.216,4.589,295.9,545.3,291.0
2023-12-28T01:45:08,2420,42.8014,5.9826,4330,272,186.078,56.997,13.315,36.062,36.642,41.230,4.588,295.9,545.2,291.1
2023-12-28T01:48:08,2420,42.8014,5.9826,4330,272,186.116,57.017,13.322,36.057,36.637,41.226,4.589,295.9,545.2,290.8
2023-12-28T01:51:08,2420,42.8014,5.9826,4330,272,185.977,56.970,13.318,36.068,36.647,41.237,4.590,296.0,545.2,291.0
2023-12-28T01:54:08,2420,42.8014,5.9826,4330,272,186.315,57.074,13.319,36.045,36.625,41.216,4.591,295.9,545.2,290.9
2023-12-28T01:57:07,2420,42.8014,5.9826,4330,272,185.739,56.898,13.319,36.082,36.662,41.253,4.591,295.9,545.2,290.9
2023-12-28T02:00:07,2420,42.8014,5.9826,4330,272,186.045,56.990,13.317,36.063,36.643,41.230,4.587,295.9,545.3,291.0
2023-12-28T02:03:08,2420,42.8014,5.9826,4330,272,186.246,57.052,13.318,36.050,36.630,41.221,4.591,295.9,545.2,291.0
2023-12-28T02:06:07,2420,42.8014,5.9826,4330,272,186.092,57.004,13.317,36.060,36.640,41.226,4.586,296.0,545.3,291.0
2023-12-28T02:09:07,2420,42.8014,5.9826,4330,272,185.912,56.948,13.317,36.072,36.652,41.238,4.586,295.9,545.3,291.0
2023-12-28T02:12:07,2420,42.8014,5.9826,4330,272,186.169,57.023,13.313,36.057,36.637,41.224,4.587,295.9,545.2,291.1
2023-12-28T02:15:07,2420,42.8014,5.9826,4330,272,186.219,57.038,13.314,36.053,36.633,41.227,4.593,295.9,545.2,291.1
2023-12-28T02:18:08,2420,42.8014,5.9826,4330,272,186.055,56.988,13.314,36.064,36.644,41.229,4.586,295.8,545.2,291.1
2023-12-28T02:21:08,2420,42.8014,5.9826,4330,272,186.198,57.041,13.320,36.052,36.632,41.219,4.587,295.8,545.3,290.9
2023-12-28T02:24:08,2420,42.8014,5.9826,4330,272,185.847,56.929,13.317,36.076,36.656,41.243,4.587,296.0,545.3,291.0
2023-12-28T02:27:08,2420,42.8014,5.9826,4330,272,186.174,57.028,13.316,36.055,36.635,41.227,4.592,295.8,545.3,291.0
2023-12-28T02:30:07,2420,42.8014,5.9826,4330,272,186.187,57.030,13.315,36.055,36.635,41.223,4.588,295.9,545.2,291.1
2023-12-28T02:33:07,2420,42.8014,5.9826,4330,272,186.139,57.015,13.315,36.058,36.638,41.224,4.586,295.9,545.2,291.1
2023-12-28T02:36:07,2420,42.8014,5.9826,4330,272,186.142,57.017,13.315,36.058,36.638,41.227,4.589,295.9,545.3,291.1
2023-12-28T02:39:07,2420,42.8014,5.9826,4330,272,186.209,57.041,13.319,36.052,36.632,41.217,4.585,295.9,545.3,290.9
2023-12-28T02:42:07,2420,42.8014,5.9826,4330,272,186.220,57.041,13.315,36.053,36.633,41.222,4.590,295.8,545.3,291.1
2023-12-28T02:45:08,2420,42.8014,5.9826,4330,272,186.323,57.071,13.314,36.047,36.627,41.214,4.587,295.9,545.3,291.1
2023-12-28T02:48:08,2420,42.8014,5.9826,4330,272,186.183,57.030,13.316,36.055,36.635,41.223,4.588,295.9,545.2,291.0
2023-12-28T02:51:08,2420,42.8014,5.9826,4330,272,186.148,57.017,13.314,36.058,36.638,41.227,4.589,295.9,545.3,291.1
2023-12-28T02:54:08,2420,42.8014,5.9826,4330,272,186.287,57.059,13.313,36.049,36.629,41.215,4.586,295.9,545.2,291.1
2023-12-28T02:57:08,2420,42.8014,5.9826,4330,272,186.084,57.001,13.317,36.061,36.641,41.231,4.590,295.9,545.3,291.0
2023-12-28T03:00:07,2420,42.8014,5.9826,4330,272,186.222,57.044,13.317,36.052,36.631,41.220,4.588,295.9,545.3,291.0
2023-12-28T03:03:07,2420,42.8014,5.9826,4330,272,186.088,57.004,13.318,36.060,36.640,41.226,4.586,295.9,545.2,291.0
2023-12-28T03:06:08,2420,42.8014,5.9826,4330,272,186.200,57.042,13.321,36.051,36.631,41.214,4.583,295.9,545.3,290.9
2023-12-28T03:09:07,2420,42.8014,5.9826,4330,272,186.353,57.087,13.320,36.042,36.622,41.211,4.589,295.8,545.3,290.9
2023-12-28T03:12:08,2420,42.8014,5.9826,4330,272,186.273,57.058,13.316,36.049,36.629,41.217,4.588,295.9,545.2,291.0
2023-12-28T03:15:08,2420,42.8014,5.9826,4330,272,186.188,57.032,13.316,36.055,36.635,41.223,4.589,295.8,545.3,291.0
2023-12-28T03:18:08,2420,42.8014,5.9826,4330,272,186.149,57.024,13.319,36.056,36.636,41.226,4.590,295.9,545.2,290.9
2023-12-28T03:21:08,2420,42.8014,5.9826,4330,272,186.266,57.057,13.317,36.049,36.629,41.218,4.589,295.9,545.3,291.0
2023-12-28T03:24:08,2420,42.8014,5.9826,4330,272,186.196,57.027,13.310,36.057,36.637,41.222,4.584,295.9,545.3,291.2
2023-12-28T03:27:07,2420,42.8014,5.9826,4330,272,186.374,57.087,13.315,36.044,36.624,41.213,4.589,295.9,545.3,291.1
2023-12-28T03:30:07,2420,42.8014,5.9826,4330,272,186.156,57.016,13.311,36.059,36.639,41.227,4.588,295.8,545.3,291.2
2023-12-28T03:33:08,2420,42.8014,5.9826,4330,272,186.212,57.038,13.315,36.054,36.634,41.222,4.588,295.8,545.3,291.1
2023-12-28T03:36:07,2420,42.8014,5.9826,4330,272,186.114,57.000,13.309,36.063,36.643,41.228,4.585,295.9,545.4,291.3
2023-12-28T03:39:07,2420,42.8014,5.9826,4330,272,186.419,57.095,13.310,36.042,36.622,41.208,4.586,295.9,545.3,291.2
2023-12-28T03:42:07,2420,42.8014,5.9826,4330,272,186.329,57.072,13.313,36.047,36.627,41.215,4.588,295.9,545.3,291.1
2023-12-28T03:45:07,2420,42.8014,5.9826,4330,272,186.483,57.120,13.314,36.037,36.617,41.209,4.593,295.8,545.3,291.1
2023-12-28T03:48:07,2420,42.8014,5.9826,4330,272,186.160,57.030,13.321,36.054,36.634,41.220,4.586,295.9,545.3,290.9
2023-12-28T03:51:08,2420,42.8014,5.9826,4330,272,186.358,57.079,13.312,36.045,36.625,41.214,4.589,295.9,545.3,291.2
2023-12-28T03:54:08,2420,42.8014,5.9826,4330,272,186.234,57.043,13.313,36.053,36.633,41.225,4.592,295.8,545.3,291.1
2023-12-28T03:57:08,2420,42.8014,5.9826,4330,272,186.201,57.029,13.311,36.057,36.637,41.223,4.587,295.9,545.4,291.2
2023-12-28T04:00:07,2420,42.8014,5.9826,4330,272,186.011,56.974,13.314,36.067,36.647,41.231,4.584,295.8,545.4,291.1
2023-12-28T04:03:07,2420,42.8014,5.9826,4330,272,186.166,57.016,13.309,36.059,36.639,41.228,4.589,295.9,545.4,291.3
2023-12-28T04:06:07,2420,42.8014,5.9826,4330,272,186.358,57.076,13.309,36.046,36.626,41.216,4.590,295.8,545.3,291.2
2023-12-28T04:09:07,2420,42.8014,5.9826,4330,272,186.132,57.004,13.308,36.062,36.642,41.229,4.588,295.8,545.4,291.3
2023-12-28T04:12:07,2420,42.8014,5.9826,4330,272,185.984,56.965,13.313,36.069,36.649,41.240,4.591,296.1,545.3,291.1
2023-12-28T04:15:07,2420,42.8014,5.9826,4330,272,186.270,57.048,13.309,36.053,36.633,41.224,4.591,295.9,545.3,291.3
2023-12-28T04:18:07,2420,42.8014,5.9826,4330,272,186.142,57.013,13.313,36.059,36.639,41.226,4.587,295.9,545.3,291.1
2023-12-28T04:21:07,2420,42.8014,5.9826,4330,272,186.158,57.016,13.311,36.060,36.640,41.222,4.582,295.8,545.4,291.2
2023-12-28T04:24:07,2420,42.8014,5.9826,4330,272,186.529,57.129,13.310,36.035,36.615,41.206,4.591,295.8,545.4,291.2
2023-12-28T04:27:07,2420,42.8014,5.9826,4330,272,186.384,57.088,13.313,36.043,36.623,41.213,4.590,295.8,545.3,291.1
2023-12-28T04:30:08,2420,42.8014,5.9826,4330,272,186.419,57.101,13.314,36.041,36.621,41.207,4.587,295.8,545.3,291.1
2023-12-28T04:33:07,2420,42.8014,5.9826,4330,272,186.316,57.078,13.322,36.044,36.624,41.214,4.590,295.8,545.2,290.8
2023-12-28T04:36:07,2420,42.8014,5.9826,4330,272,186.248,57.049,13.315,36.051,36.631,41.215,4.583,295.8,545.2,291.1
2023-12-28T04:39:07,2420,42.8014,5.9826,4330,272,186.438,57.106,13.314,36.039,36.619,41.209,4.589,295.9,545.3,291.1
2023-12-28T04:42:07,2420,42.8014,5.9826,4330,272,186.375,57.086,13.313,36.044,36.624,41.211,4.587,295.9,545.3,291.1
2023-12-28T04:45:07,2420,42.8014,5.9826,4330,272,186.296,57.068,13.318,36.047,36.627,41.214,4.587,295.8,545.3,291.0
2023-12-28T04:48:07,2420,42.8014,5.9826,4330,272,186.205,57.036,13.315,36.054,36.633,41.218,4.585,295.8,545.3,291.1
2023-12-28T04:51:08,2420,42.8014,5.9826,4330,272,186.405,57.094,13.313,36.042,36.622,41.210,4.587,295.7,545.3,291.1
2023-12-28T04:54:08,2420,42.8014,5.9826,4330,272,186.346,57.078,13.314,36.045,36.625,41.212,4.587,295.8,545.3,291.1
2023-12-28T04:57:08,2420,42.8014,5.9826,4330,272,186.102,57.009,13.319,36.059,36.639,41.220,4.581,295.8,545.3,290.9
2023-12-28T05:00:07,2420,42.8014,5.9826,4330,272,186.322,57.074,13.317,36.045,36.625,41.211,4.586,295.8,545.2,291.0
2023-12-28T05:03:07,2420,42.8014,5.9826,4330,272,186.193,57.034,13.316,36.054,36.634,41.217,4.583,295.8,545.3,291.0
2023-12-28T05:06:07,2420,42.8014,5.9826,4330,272,186.363,57.091,13.320,36.041,36.621,41.211,4.590,295.8,545.3,290.9
2023-12-28T05:09:07,2420,42.8014,5.9826,4330,272,186.333,57.086,13.324,36.041,36.621,41.208,4.587,295.8,545.3,290.8
2023-12-28T05:12:07,2420,42.8014,5.9826,4330,272,186.287,57.066,13.319,36.047,36.627,41.217,4.590,295.9,545.2,290.9
2023-12-28T05:15:08,2420,42.8014,5.9826,4330,272,186.385,57.101,13.323,36.038,36.618,41.208,4.590,295.8,545.2,290.8
2023-12-28T05:18:07,2420,42.8014,5.9826,4330,272,186.221,57.045,13.318,36.052,36.632,41.216,4.584,295.9,545.3,290.9
2023-12-28T05:21:07,2420,42.8014,5.9826,4330,272,186.106,57.011,13.320,36.058,36.638,41.222,4.584,295.8,545.3,290.9
2023-12-28T05:24:07,2420,42.8014,5.9826,4330,272,186.338,57.076,13.315,36.046,36.625,41.214,4.588,295.8,545.3,291.1
2023-12-28T05:27:07,2420,42.8014,5.9826,4330,272,186.415,57.104,13.318,36.039,36.619,41.210,4.591,295.8,545.3,291.0
2023-12-28T05:30:07,2420,42.8014,5.9826,4330,272,186.032,56.983,13.315,36.065,36.645,41.234,4.589,295.8,545.3,291.1
2023-12-28T05:33:07,2420,42.8014,5.9826,4330,272,186.292,57.064,13.317,36.047,36.627,41.212,4.585,295.9,545.2,291.0
2023-12-28T05:36:07,2420,42.8014,5.9826,4330,272,186.094,57.002,13.315,36.061,36.641,41.230,4.589,295.8,545.3,291.1
2023-12-28T05:39:07,2420,42.8014,5.9826,4330,272,186.440,57.108,13.315,36.038,36.618,41.208,4.589,295.8,545.3,291.1
2023-12-28T05:42:08,2420,42.8014,5.9826,4330,272,186.235,57.045,13.315,36.052,36.632,41.218,4.586,295.9,545.3,291.1
2023-12-28T05:45:08,2420,42.8014,5.9826,4330,272,186.106,57.006,13.316,36.060,36.640,41.224,4.584,295.8,545.3,291.0
2023-12-28T05:48:08,2420,42.8014,5.9826,4330,272,186.119,57.012,13.317,36.059,36.638,41.224,4.585,295.8,545.2,291.0
2023-12-28T05:51:07,2420,42.8014,5.9826,4330,272,186.374,57.092,13.318,36.041,36.621,41.208,4.587,295.8,545.2,291.0
2023-12-28T05:54:07,2420,42.8014,5.9826,4330,272,186.174,57.032,13.320,36.053,36.633,41.217,4.584,295.7,545.2,290.9
2023-12-28T05:57:07,2420,42.8014,5.9826,4330,272,186.162,57.025,13.317,36.056,36.636,41.223,4.587,295.8,545.2,291.0
2023-12-28T06:00:08,2420,42.8014,5.9826,4330,272,186.268,57.057,13.317,36.049,36.629,41.218,4.589,295.8,545.3,291.0
2023-12-28T06:03:07,2420,42.8014,5.9826,4330,272,186.342,57.084,13.320,36.043,36.623,41.211,4.588,295.8,545.3,290.9
2023-12-28T06:06:07,2420,42.8014,5.9826,4330,272,186.221,57.042,13.316,36.052,36.632,41.218,4.585,295.8,545.3,291.0
2023-12-28T06:09:07,2420,42.8014,5.9826,4330,272,186.357,57.094,13.324,36.040,36.620,41.207,4.588,295.8,545.3,290.8
2023-12-28T06:12:08,2420,42.8014,5.9826,4330,272,186.117,57.017,13.321,36.057,36.637,41.225,4.589,295.8,545.2,290.9
2023-12-28T06:15:08,2420,42.8014,5.9826,4330,272,186.155,57.026,13.319,36.055,36.635,41.221,4.586,295.8,545.3,290.9
2023-12-28T06:18:08,2420,42.8014,5.9826,4330,272,186.053,56.996,13.320,36.062,36.641,41.224,4.583,295.8,545.3,290.9
2023-12-28T06:21:08,2420,42.8014,5.9826,4330,272,186.257,57.060,13.322,36.048,36.627,41.216,4.588,295.8,545.3,290.8
2023-12-28T06:24:07,2420,42.8014,5.9826,4330,272,186.248,57.052,13.318,36.050,36.630,41.216,4.586,295.9,545.2,291.0
2023-12-28T06:27:07,2420,42.8014,5.9826,4330,272,185.876,56.941,13.320,36.074,36.653,41.237,4.583,295.8,545.2,290.9
2023-12-28T06:30:07,2420,42.8014,5.9826,4330,272,186.485,57.126,13.319,36.034,36.614,41.208,4.593,295.7,545.3,290.9
2023-12-28T06:33:07,2420,42.8014,5.9826,4330,272,186.110,57.010,13.318,36.059,36.639,41.228,4.589,295.9,545.3,291.0
2023-12-28T06:36:07,2420,42.8014,5.9826,4330,272,186.441,57.117,13.322,36.035,36.615,41.205,4.590,295.9,545.3,290.8
2023-12-28T06:39:07,2420,42.8014,5.9826,4330,272,186.413,57.113,13.326,36.035,36.615,41.205,4.590,295.8,545.3,290.7
2023-12-28T06:42:07,2420,42.8014,5.9826,4330,272,185.989,56.986,13.328,36.062,36.641,41.225,4.583,295.8,545.3,290.6
2023-12-28T06:45:08,2420,42.8014,5.9826,4330,272,186.185,57.045,13.327,36.049,36.629,41.223,4.594,295.8,545.3,290.7
2023-12-28T06:48:08,2420,42.8014,5.9826,4330,272,186.060,57.003,13.324,36.060,36.639,41.230,4.591,295.9,545.3,290.8
2023-12-28T06:51:08,2420,42.8014,5.9826,4330,272,185.877,56.949,13.326,36.070,36.650,41.233,4.582,295.9,545.2,290.7
2023-12-28T06:54:07,2420,42.8014,5.9826,4330,272,186.301,57.078,13.325,36.043,36.623,41.214,4.591,295.9,545.2,290.7
2023-12-28T06:57:07,2420,42.8014,5.9826,4330,272,186.014,56.991,13.326,36.061,36.641,41.226,4.585,296.0,545.2,290.7
2023-12-28T07:00:07,2420,42.8014,5.9826,4330,272,185.959,56.978,13.329,36.063,36.643,41.232,4.589,295.9,545.2,290.6
2023-12-28T07:03:07,2420,42.8014,5.9826,4330,272,185.893,56.965,13.335,36.064,36.644,41.233,4.589,295.9,545.3,290.4
2023-12-28T07:06:07,2420,42.8014,5.9826,4330,272,186.197,57.059,13.335,36.045,36.625,41.217,4.592,295.9,545.2,290.4
2023-12-28T07:09:08,2420,42.8014,5.9826,4330,272,186.056,57.011,13.331,36.056,36.636,41.220,4.585,295.9,545.1,290.5
2023-12-28T07:12:08,2420,42.8014,5.9826,4330,272,185.836,56.950,13.337,36.067,36.647,41.231,4.585,295.9,545.1,290.3
2023-12-28T07:15:08,2420,42.8014,5.9826,4330,272,185.911,56.980,13.342,36.060,36.640,41.224,4.584,295.9,545.2,290.2
2023-12-28T07:18:07,2420,42.8014,5.9826,4330,272,186.023,57.009,13.338,36.055,36.635,41.221,4.586,295.9,545.2,290.3
2023-12-28T07:21:07,2420,42.8014,5.9826,4330,272,185.956,56.991,13.340,36.059,36.638,41.227,4.589,295.9,545.1,290.3
2023-12-28T07:24:07,2420,42.8014,5.9826,4330,272,186.001,57.000,13.336,36.057,36.637,41.224,4.587,295.8,545.1,290.4
2023-12-28T07:27:07,2420,42.8014,5.9826,4330,272,185.966,56.992,13.338,36.058,36.638,41.234,4.596,295.9,545.1,290.3
2023-12-28T07:30:08,2420,42.8014,5.9826,4330,272,185.946,56.986,13.339,36.059,36.639,41.228,4.588,295.9,545.2,290.3
2023-12-28T07:33:07,2420,42.8014,5.9826,4330,272,186.010,57.007,13.339,36.055,36.635,41.227,4.592,295.9,545.2,290.3
2023-12-28T07:36:07,2420,42.8014,5.9826,4330,272,185.973,56.999,13.342,36.056,36.636,41.224,4.589,296.0,545.1,290.2
2023-12-28T07:39:07,2420,42.8014,5.9826,4330,272,185.890,56.973,13.342,36.062,36.641,41.229,4.587,295.9,545.2,290.2
2023-12-28T07:42:07,2420,42.8014,5.9826,4330,272,186.038,57.010,13.335,36.055,36.635,41.220,4.585,296.0,545.2,290.4
2023-12-28T07:45:07,2420,42.8014,5.9826,4330,272,185.941,56.983,13.337,36.060,36.640,41.224,4.584,295.9,545.2,290.3
2023-12-28T07:48:07,2420,42.8014,5.9826,4330,272,185.933,56.973,13.331,36.064,36.643,41.231,4.588,296.0,545.2,290.5
2023-12-28T07:51:07,2420,42.8014,5.9826,4330,272,185.970,56.994,13.339,36.058,36.638,41.226,4.588,295.9,545.2,290.3
2023-12-28T07:54:08,2420,42.8014,5.9826,4330,272,185.702,56.913,13.340,36.075,36.655,41.242,4.587,295.8,545.2,290.2
2023-12-28T07:57:08,2420,42.8014,5.9826,4330,272,186.254,57.079,13.337,36.040,36.620,41.205,4.586,295.9,545.2,290.3
2023-12-28T08:00:08,2420,42.8014,5.9826,4330,272,185.887,56.964,13.335,36.065,36.645,41.236,4.592,295.9,545.2,290.4
2023-12-28T08:03:07,2420,42.8014,5.9826,4330,272,186.223,57.068,13.336,36.043,36.623,41.214,4.591,296.0,545.2,290.4
2023-12-28T08:06:07,2420,42.8014,5.9826,4330,272,186.012,57.012,13.343,36.053,36.633,41.222,4.590,295.8,545.2,290.1
2023-12-28T08:09:07,2420,42.8014,5.9826,4330,272,185.895,56.979,13.345,36.060,36.639,41.229,4.589,295.8,545.1,290.1
2023-12-28T08:12:07,2420,42.8014,5.9826,4330,272,185.972,57.002,13.344,36.055,36.635,41.219,4.584,295.9,545.2,290.1
2023-12-28T08:15:08,2420,42.8014,5.9826,4330,272,186.106,57.029,13.334,36.051,36.631,41.218,4.587,295.9,545.2,290.4
2023-12-28T08:18:08,2420,42.8014,5.9826,4330,272,186.039,57.006,13.332,36.056,36.636,41.227,4.591,295.9,545.2,290.5
2023-12-28T08:21:08,2420,42.8014,5.9826,4330,272,186.237,57.072,13.336,36.041,36.622,41.208,4.587,295.9,545.2,290.4
2023-12-28T08:24:08,2420,42.8014,5.9826,4330,272,185.885,56.952,13.326,36.070,36.650,41.231,4.581,295.9,545.1,290.7
2023-12-28T08:27:07,2420,42.8014,5.9826,4330,272,185.986,56.983,13.326,36.063,36.643,41.233,4.590,295.9,545.1,290.7
2023-12-28T08:30:07,2420,42.8014,5.9826,4330,272,186.050,57.016,13.337,36.053,36.633,41.221,4.588,295.9,545.2,290.3
2023-12-28T08:33:07,2420,42.8014,5.9826,4330,272,186.154,57.040,13.331,36.050,36.630,41.219,4.589,295.9,545.1,290.5
2023-12-28T08:36:07,2420,42.8014,5.9826,4330,272,186.024,56.997,13.328,36.059,36.639,41.227,4.588,295.9,545.1,290.6
2023-12-28T08:39:07,2420,42.8014,5.9826,4330,272,186.025,57.006,13.335,36.056,36.636,41.224,4.588,295.9,545.2,290.4
2023-12-28T08:42:08,2420,42.8014,5.9826,4330,272,185.981,56.998,13.340,36.056,36.636,41.218,4.581,295.9,545.1,290.3
2023-12-28T08:45:08,2420,42.8014,5.9826,4330,272,186.111,57.043,13.344,36.046,36.626,41.216,4.590,295.9,545.2,290.1
2023-12-28T08:48:08,2420,42.8014,5.9826,4330,272,185.934,56.985,13.341,36.059,36.639,41.227,4.588,295.9,545.2,290.2
2023-12-28T08:51:08,2420,42.8014,5.9826,4330,272,185.905,56.977,13.341,36.061,36.641,41.231,4.590,295.8,545.2,290.2
2023-12-28T08:54:07,2420,42.8014,5.9826,4330,272,185.983,56.998,13.339,36.057,36.637,41.223,4.586,295.9,545.2,290.3
2023-12-28T08:57:07,2420,42.8014,5.9826,4330,272,185.864,56.956,13.334,36.067,36.647,41.230,4.583,295.8,545.2,290.4
2023-12-28T09:00:07,2420,42.8014,5.9826,4330,272,185.991,56.997,13.336,36.058,36.638,41.226,4.588,295.8,545.1,290.4
2023-12-28T09:03:07,2420,42.8014,5.9826,4330,272,186.200,57.055,13.331,36.047,36.627,41.216,4.589,295.9,545.2,290.5
2023-12-28T09:06:07,2420,42.8014,5.9826,4330,272,185.847,56.948,13.333,36.069,36.648,41.234,4.585,295.9,545.1,290.5
2023-12-28T09:09:08,2420,42.8014,5.9826,4330,272,186.300,57.087,13.333,36.039,36.620,41.210,4.591,295.9,545.2,290.5
2023-12-28T09:12:08,2420,42.8014,5.9826,4330,272,185.956,56.984,13.334,36.061,36.641,41.232,4.591,295.9,545.1,290.4
2023-12-28T09:15:08,2420,42.8014,5.9826,4330,272,185.834,56.957,13.343,36.064,36.644,41.231,4.587,295.9,545.2,290.1
2023-12-28T09:18:08,2420,42.8014,5.9826,4330,272,185.855,56.961,13.341,36.064,36.644,41.234,4.590,295.9,545.2,290.2
2023-12-28T09:21:08,2420,42.8014,5.9826,4330,272,186.012,57.007,13.339,36.055,36.635,41.227,4.592,295.9,545.2,290.3
2023-12-28T09:24:08,2420,42.8014,5.9826,4330,272,186.041,57.017,13.340,36.052,36.632,41.215,4.583,295.9,545.1,290.2
2023-12-28T09:27:07,2420,42.8014,5.9826,4330,272,185.887,56.969,13.339,36.063,36.643,41.231,4.588,295.9,545.2,290.3
2023-12-28T09:30:07,2420,42.8014,5.9826,4330,272,185.865,56.962,13.339,36.065,36.644,41.229,4.584,295.8,545.1,290.3
2023-12-28T09:33:07,2420,42.8014,5.9826,4330,272,185.910,56.975,13.338,36.061,36.641,41.231,4.590,295.9,545.2,290.3
2023-12-28T09:36:07,2420,42.8014,5.9826,4330,272,185.860,56.959,13.338,36.065,36.645,41.233,4.588,295.9,545.2,290.3
2023-12-28T09:39:07,2420,42.8014,5.9826,4330,272,186.097,57.034,13.339,36.049,36.629,41.217,4.588,295.9,545.2,290.3
2023-12-28T09:42:07,2420,42.8014,5.9826,4330,272,185.861,56.957,13.336,36.066,36.646,41.233,4.587,295.9,545.2,290.4
2023-12-28T09:45:07,2420,42.8014,5.9826,4330,272,186.138,57.044,13.338,36.048,36.627,41.222,4.595,295.9,545.2,290.3
2023-12-28T09:48:08,2420,42.8014,5.9826,4330,272,186.160,57.047,13.335,36.048,36.628,41.214,4.586,296.0,545.1,290.4
2023-12-28T09:51:08,2420,42.8014,5.9826,4330,272,186.345,57.114,13.343,36.031,36.612,41.199,4.588,295.9,545.1,290.1
2023-12-28T09:54:08,2420,42.8014,5.9826,4330,272,185.994,57.003,13.340,36.056,36.636,41.226,4.590,295.9,545.1,290.2
2023-12-28T09:57:07,2420,42.8014,5.9826,4330,272,186.103,57.036,13.340,36.048,36.628,41.217,4.589,296.0,545.0,290.3
2023-12-28T10:00:07,2420,42.8014,5.9826,4330,272,185.970,56.992,13.338,36.058,36.638,41.225,4.587,295.9,545.1,290.3